TimeCDT,TemperatureF,Dew PointF,Humidity,Sea Level PressureIn,VisibilityMPH,Wind Direction,Wind SpeedMPH,Gust SpeedMPH,PrecipitationIn,Events,Conditions,WindDirDegrees,DateUTC
12:52 AM,30.9,27.0,85,30.46,8.0,WNW,5.8,-,0.00,,Overcast,300,2012-10-06 05:52:00
1:52 AM,30.9,28.0,89,30.45,10.0,WNW,5.8,-,0.00,,Overcast,300,2012-10-06 06:52:00
2:52 AM,30.0,27.0,88,30.45,10.0,West,5.8,-,N/A,,Scattered Clouds,280,2012-10-06 07:52:00
3:52 AM,30.9,27.0,85,30.45,10.0,West,6.9,-,N/A,,Overcast,280,2012-10-06 08:52:00
4:52 AM,30.9,27.0,85,30.45,10.0,WNW,5.8,-,N/A,,Mostly Cloudy,290,2012-10-06 09:52:00
5:52 AM,30.9,27.0,85,30.45,10.0,WNW,5.8,-,N/A,,Scattered Clouds,290,2012-10-06 10:52:00
6:52 AM,30.0,27.0,88,30.46,10.0,West,5.8,-,N/A,,Partly Cloudy,270,2012-10-06 11:52:00
7:52 AM,28.0,25.0,88,30.48,10.0,West,3.5,-,N/A,,Clear,280,2012-10-06 12:52:00
8:52 AM,30.0,26.1,85,30.48,10.0,WNW,5.8,-,N/A,,Clear,290,2012-10-06 13:52:00
9:52 AM,34.0,27.0,75,30.49,10.0,WNW,5.8,-,N/A,,Clear,290,2012-10-06 14:52:00
10:52 AM,37.0,28.0,70,30.48,10.0,WNW,5.8,-,N/A,,Clear,300,2012-10-06 15:52:00
11:52 AM,41.0,26.1,55,30.46,10.0,West,9.2,-,N/A,,Partly Cloudy,280,2012-10-06 16:52:00
12:52 PM,43.0,24.1,47,30.44,10.0,WNW,5.8,-,N/A,,Partly Cloudy,290,2012-10-06 17:52:00
1:52 PM,45.0,19.9,37,30.40,10.0,West,8.1,-,N/A,,Clear,280,2012-10-06 18:52:00
2:52 PM,46.0,18.0,33,30.36,10.0,Variable,3.5,-,N/A,,Clear,0,2012-10-06 19:52:00
3:52 PM,48.0,17.1,29,30.33,10.0,WNW,13.8,19.6,N/A,,Clear,290,2012-10-06 20:52:00
4:52 PM,48.9,18.0,29,30.31,10.0,WNW,11.5,20.7,N/A,,Clear,300,2012-10-06 21:52:00
5:52 PM,48.0,16.0,28,30.28,10.0,West,9.2,-,N/A,,Clear,270,2012-10-06 22:52:00
6:52 PM,45.0,12.9,27,30.27,10.0,West,9.2,-,N/A,,Clear,270,2012-10-06 23:52:00
7:52 PM,41.0,12.9,32,30.27,10.0,WSW,4.6,-,N/A,,Clear,250,2012-10-07 00:52:00
8:52 PM,36.0,15.1,43,30.26,10.0,Calm,Calm,-,N/A,,Clear,0,2012-10-07 01:52:00
9:52 PM,34.0,15.1,46,30.25,10.0,SW,4.6,-,N/A,,Clear,230,2012-10-07 02:52:00
10:52 PM,32.0,16.0,52,30.23,10.0,Calm,Calm,-,N/A,,Clear,0,2012-10-07 03:52:00
11:52 PM,32.0,17.1,54,30.20,10.0,Calm,Calm,-,N/A,,Clear,0,2012-10-07 04:52:00